RH
91 92 89 87 84 87 89 86 83 82 81 78 41 49 57 54 57 61 65 71 75 76 79 81 78 78 81 84 81 79 77 80 82
92 91 86 86 89 88 87 85 85 83 81 77 56 65 61 56 57 60 67 74 76 82 86 89 94 92 92 88 93 95 92 94 94
91 87 88 88 88 86 86 85 82 80 85 58 63 61 57 58 61 68 70 78 89 94 97 94 93 90 92 88 88 88 89 94 95
88 88 87 88 87 85 86 83 81 88 69 64 65 65 60 57 59 61 74 86 96 92 92 93 89 89 88 86 87 86 88 90 92
89 86 85 85 85 85 86 84 82 80 69 64 69 66 60 58 59 68 84 97 92 91 92 85 87 83 82 77 83 85 78 85 85
82 75 82 81 83 86 88 76 42 63 72 81 80 70 57 56 64 78 94 92 90 90 89 87 82 80 79 76 81 87 79 85 81
73 81 80 84 84 88 83 43 49 70 74 77 77 80 70 69 73 90 93 90 87 87 86 83 82 79 81 79 80 82 77 82 86
69 81 80 82 83 83 67 51 47 55 61 62 76 77 82 87 89 96 86 86 84 86 84 84 78 80 80 79 85 91 78 78 86
63 63 65 64 63 68 56 49 48 51 59 59 71 84 86 94 99 95 91 90 90 89 81 77 78 77 79 85 97 88 81 80 78
50 50 54 54 52 53 50 49 48 50 57 58 74 81 95 99 97 95 92 90 88 91 89 77 77 78 78 85 78 76 78 79 80
43 45 46 48 48 50 50 50 48 52 58 60 68 78 90 91 87 82 82 74 77 88 84 77 72 76 76 77 76 83 76 78 77
46 44 48 48 47 49 49 50 50 50 53 60 63 70 74 76 79 79 80 79 80 77 80 78 78 80 79 76 76 76 76 76 80
47 48 49 50 50 50 52 51 51 53 54 55 56 60 63 65 67 69 68 70 77 79 84 82 83 78 80 79 76 74 76 82 76
48 49 51 54 54 54 52 51 52 54 54 55 57 60 62 61 59 62 66 67 67 76 65 78 86 88 84 79 77 78 78 82 79
46 47 53 56 56 55 53 54 54 55 58 54 58 59 63 64 66 68 68 72 71 72 78 77 68 68 87 90 85 77 81 81 77
48 49 53 56 57 56 55 56 56 57 54 58 62 64 66 68 69 69 69 75 74 74 72 72 74 74 64 60 93 93 82 85 83
50 50 51 54 54 55 55 58 58 58 56 58 56 61 61 62 63 63 62 69 74 75 74 72 73 73 67 57 52 68 90 93 86
50 51 51 50 50 55 56 60 59 61 60 52 48 56 54 59 62 61 62 63 67 72 75 75 74 72 74 77 71 64 85 89 89
55 54 52 52 50 55 59 62 62 63 65 62 58 58 52 56 65 60 58 60 64 71 76 75 76 76 77 68 56 60 82 90 91
57 56 55 54 54 55 59 61 65 60 66 64 63 60 61 51 51 65 62 63 65 72 70 74 76 77 78 84 62 63 90 89 91
Wind_Speed
14 15 14 13 13 14 14 13 14 14 13 12 14 18 16 14 14 15 15 14 13 14 13 14 16 17 17 17 16 16 16 17 17
15 15 15 15 15 15 15 15 14 13 13 14 18 17 13 14 14 14 14 14 14 16 16 16 17 18 18 18 18 18 19 19 19
15 15 16 16 15 15 14 15 14 13 15 16 18 18 16 14 15 15 14 14 14 15 20 20 19 18 17 17 18 18 19 20 20
15 15 16 16 15 15 15 14 14 15 17 18 18 17 17 14 14 14 14 12 17 20 19 18 16 16 16 17 18 17 18 18 18
16 16 15 15 15 15 15 14 14 17 19 21 22 18 16 15 15 15 12 21 19 18 17 14 15 15 16 16 17 19 18 16 16
16 15 16 17 16 16 15 15 16 20 20 18 15 15 13 14 15 12 16 20 17 17 16 14 16 15 15 16 16 18 17 18 16
13 16 16 17 18 17 15 18 19 17 15 14 12 11 13 15 15 12 20 19 17 16 15 14 15 15 15 14 15 17 18 16 18
14 17 15 15 18 15 14 15 10 12 12 12 13 13 15 13 13 19 17 17 16 17 15 15 15 15 15 16 15 16 17 16 17
16 15 15 17 14 15 13 11 12 12 12 13 14 12 14 12 20 17 17 19 17 16 15 15 15 15 14 14 16 17 16 17 17
16 16 15 15 15 15 14 14 13 15 14 13 14 15 17 21 25 22 19 18 16 16 14 13 13 13 14 15 16 16 16 16 17
16 17 16 16 16 15 15 15 14 14 14 14 14 14 18 19 20 18 15 12 10 14 11 12 12 12 13 13 14 15 16 16 16
17 16 17 17 16 16 16 16 15 15 14 14 14 13 12 12 10 10 8 9 10 8 8 10 11 11 12 13 14 13 14 14 15
17 17 16 17 18 18 17 17 16 15 15 14 13 12 11 10 9 8 8 7 6 6 11 10 11 11 11 12 12 13 13 13 12
16 16 17 19 19 18 18 17 17 16 15 14 13 11 10 10 9 9 8 9 8 8 8 8 10 11 11 11 10 11 11 12 12
17 16 17 19 19 18 18 17 16 16 16 15 12 10 9 9 9 8 7 7 8 7 6 8 6 7 9 10 10 9 10 10 11
18 18 19 19 19 19 19 18 19 17 17 17 13 9 8 8 8 8 7 7 7 6 7 5 3 5 7 7 8 10 9 8 9
19 19 21 20 20 20 21 19 20 18 20 15 13 5 5 7 8 8 8 8 7 6 6 5 4 5 3 7 6 6 8 7 7
21 21 21 22 21 22 23 22 21 20 21 17 5 4 4 13 9 9 9 9 9 8 7 6 5 5 4 4 4 6 9 7 8
24 23 22 23 21 23 23 23 21 18 20 14 9 2 8 3 5 10 11 11 10 10 9 8 6 5 4 3 4 6 9 7 8
28 26 24 24 23 23 25 25 24 20 21 18 14 8 6 5 4 5 12 11 12 11 10 10 8 7 4 2 2 6 8 6 8
Wind_Direction
137 133 128 125 123 119 117 114 113 109 104 99 103 102 100 83 89 87 73 74 76 70 78 80 76 71 71 70 63 62 60 56 53
140 133 126 123 121 117 115 113 108 103 101 106 111 104 86 97 94 89 85 82 87 89 88 83 81 76 73 72 67 66 61 57 55
137 131 125 124 121 115 114 115 107 103 103 111 111 102 94 94 94 89 96 99 95 93 84 77 71 68 61 60 56 54 53 50 50
134 133 129 128 122 116 116 110 106 106 109 109 108 101 92 95 98 100 103 104 97 85 79 71 66 64 61 60 55 53 48 44 43
137 138 131 130 127 122 123 115 113 118 115 107 107 104 99 96 100 105 105 99 88 83 75 71 70 67 64 58 57 58 46 43 43
137 148 137 133 131 129 126 121 122 123 117 109 94 88 100 100 105 107 112 93 87 81 79 75 69 67 63 61 61 57 52 49 49
147 144 139 137 134 136 129 114 110 114 115 98 93 99 91 96 106 117 104 93 88 82 80 74 70 64 60 61 64 56 49 50 47
142 142 139 139 135 138 132 120 122 136 129 112 113 96 111 98 112 114 107 100 93 87 78 74 68 63 62 61 64 61 53 47 48
155 151 151 148 151 147 146 138 132 134 130 121 114 100 118 96 115 111 106 104 96 88 77 71 66 62 65 63 68 63 52 52 48
162 160 159 158 156 153 149 141 134 133 131 122 114 114 106 110 108 109 105 98 90 82 77 66 63 65 68 64 60 53 55 52 49
164 161 161 157 157 154 150 145 139 133 134 129 125 130 117 114 110 109 104 98 92 82 75 67 62 67 69 65 62 58 55 52 48
165 163 160 158 157 153 151 147 143 138 136 134 135 137 125 123 111 103 102 103 117 108 92 71 67 67 69 67 63 59 54 53 50
165 164 162 157 156 155 153 153 148 144 142 141 140 140 144 142 140 136 132 124 118 110 105 84 74 72 67 67 65 60 53 51 46
168 168 165 158 157 159 158 158 153 149 148 143 142 143 143 141 141 136 132 135 127 109 113 124 100 75 67 67 65 59 53 54 46
171 169 169 163 161 163 162 161 156 153 152 146 140 139 141 145 147 144 139 138 135 131 124 101 102 78 69 67 66 66 57 58 53
176 172 172 170 168 168 166 163 158 156 158 142 135 133 141 151 153 155 153 153 153 148 149 142 116 65 62 77 75 56 58 62 69
180 176 176 174 173 172 171 169 165 164 167 160 146 149 154 175 169 166 166 164 166 169 166 158 144 134 104 72 69 93 56 52 78
183 182 180 179 178 177 177 176 174 169 184 177 186 154 174 153 180 181 180 174 177 177 174 169 161 143 113 83 55 92 90 63 72
186 187 184 184 181 181 181 183 181 176 185 198 217 170 119 184 164 188 190 187 184 178 176 175 168 158 163 122 95 112 103 82 82
191 189 189 188 187 187 184 186 187 193 186 190 185 190 165 209 144 163 179 192 192 186 185 179 173 173 162 149 147 134 100 92 89